Location: Rohlstorf
(53.9174°N, 11.5263°E)
Time: 01:28:31
(UTC+02:00)

ISS - Visible Passes

Search period start: 25 June 2022 00:00
Search period end: 05 July 2022 00:00
Orbit: 414 x 420 km, 51.6° (Epoch: 24 June)

Date Brightness Start Highest point End Pass type
(mag) Time Alt. Az. Time Alt. Az. Time Alt. Az.
01 Jul -1.6 03:21:28 10° S 03:23:20 14° SE 03:25:12 10° ESE visible
03 Jul -2.4 03:20:36 12° SSW 03:22:59 25° SSE 03:25:48 10° E visible
04 Jul -2.1 02:33:45 16° S 02:34:46 19° SSE 02:37:12 10° E visible
